Location: Poughquag
(41.6090°N, 73.6820°W)
Time: 20:55:31
(UTC-04:00)

Tiros 1 despin weight - Pass Details

Date: 02 June 2020
Orbit: 593 x 642 km, 48.2° (Epoch: 04 July)

Event Time Altitude Azimuth Distance (km) Brightness Sun altitude
Rises 09:54:27 0° 226° (SW) 2,925 ? 48.1°
Reaches altitude 10° 09:56:49 10° 221° (SW) 2,015 ? 48.5°
Maximum altitude 10:01:20 54° 145° (SE) 771 ? 49.4°
Drops below altitude 10° 10:05:50 10° 68° (ENE) 1,998 ? 50.2°
Sets 10:08:10 0° 64° (ENE) 2,899 ? 50.6°
